Погода в Благовещенске

Погода в Благовещенске : погода сейчас, прогноз погоды и архив. Всё, что Вы хотите узнать о погоде в Благовещенске!

Хотите узнать прогноз погоды в Благовещенске? Тогда Вам сюда: Погода в Благовещенске

Поиск расширенной информации на нашем сайте:

Другие новости

Новости СМИ2

Главная страница сайта

Новости сайта

03.07.2017

Напоминаем, что на нашем специализированном сайте Метеоцентр.Азия вы можете получить высокодетализированные автоматические прогнозы погоды по пунктам России, СНГ и мира в авиационном формате (включающие направление и скорость ветра, видимость, явления погоды, количество и форму облачности, нижнюю и верхнюю границу облачности).


Погода в Благовещенске - сегодня

Время (UTC), дата Ветер
(°,м/с) 
Видим.   Явления Облачность Т
(°С)
Тd
(°С)
f(%) Тe
(°С)
Pmin
(гПа)
dP
(гПа)
Po
(мм)
O2
(г/м3)
Тmin Tmax R s Состояние
почвы
00 19.09.17 310 (СЗ) 20000 м  {туман}  10/9 1000 м средняя 
[Sc diur, vesp|Ac trans]
+15.1 +13.3 89 +21  1002.3  0.7  737  279  +11.7        влажная 
03 19.09.17 350 (С) 20000 м    10/10 600 м кучево-дожд. 
[Cb cap]
+17.9 +13.1 73 +24  1002.5  0.4  737  276           
06 19.09.17 300 (СЗ) 20000 м    8/8 600 м кучево-дожд., средняя 
[Cb cap|Ac cuf]
+19.4 +12 62 +24  1002.5  737  275           
09 19.09.17 300 (СЗ) 20000 м    8/8 600 м кучево-дожд. 
[Cb cap]
+19.7 +11.8 60 +25  1003.1  0.7  738  275           
12 19.09.17 290 (З) н/о  {ливн. осадки}  4/1 1000 м средняя 
[Sc diur, vesp|Ac cast]
+14.1 +11.2 83 +17  1005.2  1.6  739  281    +20.2  0.3     
15 19.09.17 340 (С) н/о    ясно 
+13.6 +9.6 77 +15  1006.6  1.3  740  282           
18 19.09.17 290 (З) н/о    ясно 
+10.6 +7.3 80 +11  1008.3  1.5  741  286           
21 19.09.17 290 (З) 20000 м    3/0 средняя 
[As op]
+9.3 +5.1 75 +9  1009.4  742  288           
00 20.09.17 310 (СЗ) 20000 м    ясно 
+12.6 +5 60 +12  1010  0.8  742  285  +9.3        влажная 
03 20.09.17 320 (СЗ) 3{10}  20000 м    ясно 
+17.3 -0.1 31 +18  1008.8  -0.9  742  281           
06 20.09.17 300 (СЗ) 20000 м    3/0 верхняя 
[Ci]
+20.2 +0.9 28 +20  1007.4  -1.1  741  278           
09 20.09.17 030 (СВ) 20000 м    6/0 верхняя 
[Ci]
+19.1 +5 39 +21  1007.3  -0.2  741  278           
12 20.09.17 250 (З) н/о    1/0 верхняя 
[Ci fib]
+13 +5.4 60 +14  1007.9  0.2  741  284    +21.3       
15 20.09.17 060 (СВ) н/о    ясно 
+9.9 +6 77 +10  1008.1  -0.1  741  287           
18 20.09.17 090 (В) н/о    8/8 1000 м верхняя 
[Sc|Ci]
+8.5 +6.5 87 +10  1007.6  -0.5  740  288           
21 20.09.17 140 (ЮВ) н/о    9/4 1000 м средняя 
[Sc|Ac As]
+10.1 +7.5 84 +10  1007  -0.5  740  286           
00 21.09.17 190 (Ю) 20000 м    10/3 1000 м средняя, верхняя 
[Sc|Ac trans|Ci fib]
+13.8 +9.5 75 +16  1007.2  0.4  740  282  +8.3        сухая 
03 21.09.17 160 (Ю) 20000 м    10/0 верхняя 
[Ci fib]
+21.4 +12.1 55 +26  1005.8  -0.9  740  274           
06 21.09.17 190 (Ю) 20000 м    3/3 1000 м 
[Cu hum]
+24.8 +6.9 32 +25  1004  -1.5  739  272           
09 21.09.17 170 (Ю) 20000 м    ясно 
+22 +10.3 47 +24  1003.8  -0.3  738  273           
12 21.09.17 190 (Ю) н/о    ясно 
+17.4 +10.5 64 +21  1005.2  739  278    +25.3       
15 21.09.17 100 (В) н/о    ясно 
+13.7 +10.2 79 +17  1005.7  0.2  739  282           
18 21.09.17 110 (В) н/о    ясно 
+11.7 +9.5 86 +14  1005.5  -0.3  739  284           
21 21.09.17 110 (В) н/о    8/0 верхняя 
[Ci fib]
+11 +9.4 90 +13  1004.6  -0.9  738  284           
00 22.09.17 140 (ЮВ) 20000 м    9/9 1000 м 
[Sc]
+13.6 +10.7 83 +16  1004.1  -0.3  738  281  +10.9        сухая 
Время (UTC), дата Ветер
(°,м/с) 
Видим.   Явления Облачность Т
(°С)
Тd
(°С)
f(%) Тe
(°С)
Pmin
(гПа)
dP
(гПа)
Po
(мм)
O2
(г/м3)
Тmin Tmax R s Состояние
почвы

Для получения пояснительной информации подведите курсор к названию столбца.

ПОГОДА в Благовещенске - архив

Всё, что Вы хотите узнать о погоде в Благовещенске - удобно и подробно!

Выберите нужную дату (начиная с 1 января 2015* года) и нажмите кнопку "Найти".
Будут отображены архивные сводки погоды по пункту Благовещенск, начиная с указанной даты.


Отображать данные в формате CSV (для использования в таблицах Excel)


Внимание! Наш архив погоды предназначен исключительно для личного некоммерческого использования в познавательных целях. Если Вам необходимы официальные справки о состоянии погоды (для производственных, юридических, коммерческих и т.п. целей), обращайтесь в органы Росгидромета.

*Примечание: данная дата относится к архиву по метеостанциям СССР (Россия, СНГ, Балтия).
Архив по метеостанциям Зарубежной Европы и Азии (кроме Китая) хранится 10 дней, по другим регионам земного шара (Китай, Африка, Америка, Австралия, Океания) - 1 день.

Благовещенск - район местоположения метеостанции


Название, широта, долгота, высота метеостанции:
Благовещенск 50.2°ш. 127.6°д. 132 м над ур. моря [Российская Федерация]

Дополнительная информация

В oтличие oт бoльшинства пoгoдных сайтoв мы публикуем пoдрoбную метеoинфoрмацию в детальнoм прoфессиoнальнoм фoрмате.

Характеристики температуры и влажнoсти вoздуха измеряются на высoте 2 м в тени вдали oт зданий и деревьев.
Скoрoсть ветра измеряется на высoте 10 м (на урoвне рoста челoвека скoрoсть ветра ниже в 1.5-2 раза). Если метеoстанция нахoдится в гoрoде или в лесу, тo скoрoсть ветра занижена на 2-4 м/с пo сравнению с oткрытым местoм. Скoрoсть ветра над акватoриями крупных рек и oзёр, а также на вершинах хoлмoв на 2-5 м/с выше, чем в oбычных услoвиях.
Атмoсфернoе давление в разных тoчках местнoсти мoжет значительнo oтличаться oт давления на метеoстанции, в зависимoсти oт услoвий рельефа (при пoдъёме на 10 м давление пoнижается примернo на 1 мм рт.ст.).